This is the latest recevied weather packets stored in our database for station/object K5NOC-12. If no packets are shown the sender has not sent any weather packets the latest 10 day(s).
| Time | Temp. | Humidity | Pressure | Rain* | Wind** | Luminosity | Snow |
|---|---|---|---|---|---|---|---|
| 1787581072 | 26.11° C | 50% | 1019.3 hPa | 0 mm | - | - | - |
| 1787580172 | 25.56° C | 51% | 1019.3 hPa | 0 mm | - | - | - |
| 1787579272 | 25° C | 53% | 1019.3 hPa | 0 mm | - | - | - |
| 1787578372 | 24.44° C | 54% | 1019.2 hPa | 0 mm | - | - | - |
| 1787577472 | 23.89° C | 55% | 1019.2 hPa | 0 mm | - | - | - |
| 1787576571 | 23.33° C | 56% | 1019.2 hPa | 0 mm | - | - | - |
| 1787575671 | 23.33° C | 56% | 1019 hPa | 0 mm | - | - | - |
| 1787574771 | 23.33° C | 58% | 1018.9 hPa | 0 mm | - | - | - |
| 1787573871 | 22.78° C | 58% | 1018.9 hPa | 0 mm | - | - | - |
| 1787572971 | 22.22° C | 58% | 1018.7 hPa | 0 mm | - | - | - |
| 1787572071 | 22.22° C | 58% | 1018.3 hPa | 0 mm | - | - | - |
| 1787571171 | 22.22° C | 59% | 1018.2 hPa | 0 mm | - | - | - |
| 1787570270 | 22.22° C | 60% | 1018.2 hPa | 0 mm | - | - | - |
| 1787569370 | 22.22° C | 60% | 1018.1 hPa | 0 mm | - | - | - |
| 1787568470 | 22.78° C | 60% | 1018 hPa | 0 mm | - | - | - |
| 1787567570 | 22.78° C | 59% | 1017.9 hPa | 0 mm | - | - | - |
| 1787566670 | 23.33° C | 60% | 1017.7 hPa | 0 mm | - | - | - |
| 1787565770 | 23.89° C | 58% | 1017.7 hPa | 0 mm | - | - | - |
| 1787564869 | 23.89° C | 57% | 1017.7 hPa | 0 mm | - | - | - |
| 1787563969 | 24.44° C | 55% | 1017.7 hPa | 0 mm | - | - | - |
| 1787563069 | 25° C | 54% | 1017.7 hPa | 0 mm | - | - | - |
| 1787562169 | 25.56° C | 52% | 1017.8 hPa | 0 mm | - | - | - |
| 1787561269 | 26.11° C | 51% | 1017.9 hPa | 0 mm | - | - | - |
| 1787560368 | 26.11° C | 51% | 1018 hPa | 0 mm | - | - | - |
| 1787559468 | 26.67° C | 50% | 1018.3 hPa | 0 mm | - | - | - |
* Rain latest hour (hover to see other rain measurements)
** Current wind speed in m/s (hover to see current wind gust speed)